Fort Lewis, WA
on Thursday, January 31, 2013

Thursday
Previous Day Next Day
Daily Summary
 ActualAverage (KOLM)Record (KOLM)
Temperature
Mean Temperature °F 40°F  
Max Temperature 50°F 48°F 61°F (1954)
Min Temperature 41°F 33°F 1°F (1950)
Degree Days
Heating Degree Days 20 25  
Month to date heating degree days 785  
Since 1 July heating degree days 3051  
Cooling Degree Days 0 0  
Month to date cooling degree days 0  
Year to date cooling degree days 0  
Moisture
Dew Point 45°F   
Average Humidity 94    
Maximum Humidity 100    
Minimum Humidity 82    
Precipitation
Precipitation 0.02 in 0.23 in 2.55 in (1987)
Month to date precipitation 7.84  
Year to date precipitation 7.84  
Wind
Wind Speed 5 mph   
Max Wind Speed 9 mph   
Max Gust Speed mph   
Visibility 10 miles   
Events     

Key: T is trace of precipitation, MM is missing value
Source: NWS Daily Summary
Time(PST)TemperatureDew PointHumidity Pressure Visibility Wind DirectionWind SpeedGust SpeedPrecipitationEvents Conditions
12:03 AM 46.4°F 46.4°F 100% 30.38 in 10.0 miles SSE 4.6 mph - N/A   Overcast
12:08 AM 46.4°F 46.4°F 100% 30.38 in 10.0 miles SSE 3.5 mph - N/A   Overcast
12:43 AM 46.4°F 46.4°F 100% 30.38 in 10.0 miles SSE 5.8 mph - N/A   Overcast
12:53 AM 46.4°F 46.4°F 100% 30.38 in 10.0 miles SSE 5.8 mph - N/A   Overcast
12:58 AM 47.1°F 46.0°F 96% 30.40 in 10.0 miles SSE 5.8 mph - N/A   Overcast
1:18 AM 46.4°F 46.4°F 100% 30.38 in 10.0 miles SSE 6.9 mph - N/A   Overcast
1:23 AM 46.4°F 46.4°F 100% 30.39 in 10.0 miles SSE 4.6 mph - N/A   Overcast
1:33 AM 46.4°F 46.4°F 100% 30.39 in 10.0 miles SSE 5.8 mph - N/A   Overcast
1:58 AM 46.4°F 45.9°F 98% 30.41 in 10.0 miles SSE 4.6 mph - N/A   Overcast
2:33 AM 46.4°F 44.6°F 93% 30.40 in 10.0 miles SSE 6.9 mph - N/A   Mostly Cloudy
2:58 AM 46.0°F 45.3°F 97% 30.42 in 10.0 miles SSE 5.8 mph - N/A   Mostly Cloudy
3:28 AM 46.4°F 46.4°F 100% 30.40 in 10.0 miles SSE 4.6 mph - N/A   Overcast
3:48 AM 46.4°F 44.6°F 93% 30.40 in 10.0 miles SSE 4.6 mph - N/A   Mostly Cloudy
3:58 AM 46.2°F 45.3°F 97% 30.42 in 10.0 miles SSE 5.8 mph - N/A   Mostly Cloudy
4:58 AM 43.0°F 42.8°F 99% 30.40 in 10.0 miles SSE 8.1 mph - N/A   Clear
5:58 AM 43.3°F 43.2°F 99% 30.40 in 10.0 miles SSE 8.1 mph - N/A   Clear
6:58 AM 41.5°F 41.2°F 99% 30.40 in 10.0 miles SSE 6.9 mph - N/A   Partly Cloudy
7:58 AM 42.3°F 41.9°F 99% 30.39 in 10.0 miles SSE 8.1 mph - N/A   Mostly Cloudy
8:58 AM 45.0°F 44.2°F 97% 30.39 in 10.0 miles SSE 8.1 mph - N/A   Mostly Cloudy
9:58 AM 47.5°F 43.5°F 86% 30.39 in 10.0 miles SSE 4.6 mph - N/A   Overcast
10:23 AM 46.4°F 44.6°F 93% 30.37 in 10.0 miles SSE 5.8 mph - N/A   Light Drizzle
10:51 AM 46.4°F 44.6°F 93% 30.37 in 10.0 miles SSE 5.8 mph - N/A   Mostly Cloudy
10:58 AM 47.1°F 45.3°F 93% 30.39 in 10.0 miles SSE 5.8 mph - 0.02 in   Mostly Cloudy
11:58 AM 47.3°F 45.7°F 94% 30.37 in 10.0 miles SSE 3.5 mph - N/A   Overcast
12:58 PM 47.7°F 45.5°F 92% 30.37 in 10.0 miles SSE 5.8 mph - N/A   Overcast
1:58 PM 49.1°F 45.0°F 86% 30.35 in 10.0 miles SSE 8.1 mph - N/A   Overcast
2:13 PM 50.0°F 44.6°F 82% 30.32 in 10.0 miles SSE 9.2 mph - N/A   Mostly Cloudy
2:58 PM 49.8°F 44.6°F 82% 30.34 in 10.0 miles SSE 8.1 mph - N/A   Overcast
3:58 PM 48.6°F 44.1°F 84% 30.33 in 10.0 miles SSE 5.8 mph - N/A   Overcast
4:43 PM 48.2°F 44.6°F 87% 30.31 in 10.0 miles SSW 5.8 mph - N/A   Overcast
4:58 PM 48.4°F 44.1°F 85% 30.33 in 10.0 miles SSW 8.1 mph - N/A   Overcast
5:58 PM 47.7°F 43.7°F 86% 30.33 in 10.0 miles SSW 6.9 mph - N/A   Overcast
6:03 PM 48.2°F 44.6°F 87% 30.31 in 10.0 miles SSW 6.9 mph - N/A   Overcast
6:13 PM 48.2°F 44.6°F 87% 30.31 in 10.0 miles SW 4.6 mph - N/A   Overcast
6:28 PM 46.4°F 44.6°F 93% 30.31 in 10.0 miles SW 3.5 mph - N/A   Overcast
6:38 PM 46.4°F 44.6°F 93% 30.31 in 10.0 miles SW 4.6 mph - N/A   Overcast
6:48 PM 46.4°F 44.6°F 93% 30.31 in 10.0 miles SW 4.6 mph - N/A   Mostly Cloudy
6:58 PM 46.8°F 44.2°F 91% 30.33 in 10.0 miles SW 3.5 mph - N/A   Mostly Cloudy
7:13 PM 46.4°F 44.6°F 93% 30.31 in 10.0 miles SW 4.6 mph - N/A   Scattered Clouds
7:23 PM 46.4°F 44.6°F 93% 30.31 in 10.0 miles SW 4.6 mph - N/A   Mostly Cloudy
7:58 PM 46.0°F 44.4°F 94% 30.32 in 10.0 miles SW 3.5 mph - N/A   Overcast
8:43 PM 44.6°F 44.6°F 100% 30.31 in 10.0 miles Calm Calm - N/A   Overcast
8:48 PM 44.6°F 44.6°F 100% 30.31 in 10.0 miles Calm Calm - N/A   Mostly Cloudy
8:53 PM 44.6°F 44.6°F 100% 30.31 in 10.0 miles Calm Calm - N/A   Scattered Clouds
8:58 PM 44.1°F 43.5°F 98% 30.33 in 10.0 miles Calm Calm - N/A   Scattered Clouds
9:08 PM 44.6°F 44.6°F 100% 30.31 in 10.0 miles WSW 1.2 mph - N/A   Mostly Cloudy
9:58 PM 45.7°F 44.8°F 97% 30.34 in 10.0 miles West 1.2 mph - N/A   Overcast
10:33 PM 46.4°F 44.6°F 93% 30.32 in 10.0 miles SW 2.3 mph - N/A   Overcast
10:38 PM 46.4°F 44.6°F 93% 30.32 in 10.0 miles SW 1.2 mph - N/A   Overcast
10:43 PM 46.4°F 44.6°F 93% 30.32 in 10.0 miles SW 2.3 mph - N/A   Overcast
10:58 PM 46.4°F 45.0°F 95% 30.34 in 10.0 miles SW 2.3 mph - N/A   Overcast
11:13 PM 46.4°F 44.6°F 93% 30.33 in 10.0 miles SW 2.3 mph - N/A   Overcast
11:53 PM 46.4°F 44.6°F 93% 30.33 in 9.0 miles SW 2.3 mph - N/A   Overcast
11:58 PM 46.4°F 45.0°F 95% 30.35 in 7.0 miles SW 2.3 mph - N/A   Overcast
Moon Phase
Jan. 31 Feb. 03 Feb. 10 Feb. 17 Feb. 25
Sunrise:07:36 AM (PST) Moon Rise:10:45 PM (PST)1/31
Sunset:05:12 PM (PST) Moon Set:09:16 AM (PST)1/31

Copyright © 2014 The Weather Underground, Inc.